[[{"header":{"parameterUnit":"m.s-1","parameterCategory":1,"la1":30.2991,"la2":30.254,"lo1":-89.0895,"lo2":-89.0444,"dy":0.0017,"dx":0.0017,"nx":28,"ny":28,"refTime":"2024-02-18T09:00:00:Z","depth":0,"parameterNumber":2,"parameterNumberName":"U-component_of_WINDS"},"data":[0,0,0,0,0,0,0,0,0,0,0,0,0,0,0,0,0,0,0,0,0,0,0,0,0,0,0,0,0,0,0,0,0,0,0,0,0,0,0,0,0,0,0,0,0,0,0,0,0,0,0,0,0,0,0,0,0,0,2.3631,2.3632,0,2.3697,2.3697,2.3698,2.3664,2.3662,2.366,2.3659,2.3725,2.3728,2.3732,0,0,0,0,0,0,0,0,0,0,0,0,0,2.3475,2.3478,2.3631,2.3632,2.3633,2.3697,2.3697,2.3698,2.3664,2.3662,2.366,2.3658,2.3724,2.3728,2.3732,0,0,0,0,0,0,0,0,0,0,0,0,0,2.3542,2.3479,2.3631,2.3624,2.3624,2.3696,2.3697,2.3699,2.3665,2.3662,2.3659,2.3657,2.3723,2.3727,2.3732,2.3816,0,0,2.3748,2.375,0,0,0,0,0,0,0,0,2.3538,2.3548,2.3624,2.3624,2.3624,2.367,2.3667,2.3738,2.3665,2.3649,2.3659,2.3656,2.3709,2.3715,2.3733,2.3819,2.3822,2.3748,2.3752,2.3754,2.3755,0,0,0,0,0,0,0,2.3534,2.3545,2.3657,2.3625,2.3625,2.3616,2.3623,2.368,2.3693,2.365,2.3648,2.3656,2.3708,2.3728,2.3734,2.3823,2.3748,2.3753,2.3756,2.3758,2.398,2.3982,0,0,0,0,0,0,2.353,2.3541,2.3655,2.3659,2.3574,2.3621,2.3629,2.3658,2.3692,2.3695,2.3658,2.3654,2.372,2.3728,2.3736,2.3835,2.3754,2.3758,2.3761,2.3977,2.398,2.3983,0,0,0,0,0,0,2.3527,2.354,2.3652,2.36,2.3613,2.3627,2.366,2.366,2.368,2.3698,2.37,2.3676,2.3719,2.3729,2.3796,2.3837,2.3761,2.3765,2.3973,2.3978,2.3982,2.4034,0,0,0,0,0,0,2.3522,2.3539,2.3572,2.3601,2.3616,2.3712,2.3662,2.3664,2.3689,2.3684,2.3715,2.3718,2.3717,2.3789,2.3801,2.3842,2.3769,2.397,2.3975,2.398,2.4028,2.4039,2.4048,0,0,0,0,0,2.3517,2.3584,2.3574,2.3587,2.3657,2.3714,2.3723,2.3721,2.3692,2.3724,2.3736,2.3717,2.3831,2.3796,2.381,2.3853,2.3967,2.3974,2.398,2.4024,2.4037,2.4048,0,0,0,0,0,0,2.356,2.3588,2.3576,2.3655,2.3683,2.3709,2.3749,2.3736,2.3772,2.3766,2.3762,2.3769,2.3839,2.3853,2.3814,2.3935,2.3894,2.3904,2.3923,2.3935,2.3945,2.394,2.3774,0,0,0,0,0,2.3578,2.3623,2.3645,2.3712,2.3727,2.3736,2.3761,2.3757,2.3785,2.3796,2.3813,2.3841,2.3882,2.391,2.395,2.4031,2.4036,2.4067,2.4077,2.4085,2.4093,2.4135,2.4148,2.4004,2.4004,2.4004,0,0,2.3617,2.3638,2.3666,2.3721,2.3742,2.3787,2.3746,2.3796,2.3829,2.3804,2.3868,2.3881,2.3912,2.3986,2.4019,2.3999,2.4134,2.4093,2.41,2.4103,2.4143,2.4156,2.4168,2.4009,2.4008,2.4007,0,0,2.371,2.3732,2.3789,2.3811,2.3843,2.3848,2.3862,2.389,2.3897,2.3962,2.3943,2.3983,2.4055,2.4077,2.4098,2.4199,2.4182,2.4212,2.4264,2.4305,2.4316,2.4326,2.436,2.4373,2.422,2.422,2.422,0,2.3754,2.3823,2.382,2.3871,2.3895,2.3875,2.3932,2.3953,2.3997,2.4013,2.3991,2.408,2.41,2.4177,2.4202,2.422,2.4235,2.4208,2.4315,2.4325,2.4334,2.4367,2.438,2.4224,2.4223,2.4223,2.4222,0,2.3874,2.3922,2.3964,2.4006,2.4035,2.4089,2.4094,2.4124,2.4117,2.4125,2.419,2.4212,2.4255,2.4274,2.4268,2.4351,2.4337,2.4315,2.4274,2.4351,2.4381,2.4394,2.4228,2.4227,2.4226,2.4225,0,0,2.3996,2.4035,2.4051,2.4069,2.4102,2.4139,2.4192,2.4234,2.4258,2.4289,2.4332,2.4393,2.4373,2.4396,2.4393,2.4429,2.4505,2.4402,2.4403,2.4419,2.4595,2.461,2.4625,2.4495,2.4498,2.45,2.4592,0,2.409,2.4182,2.4181,2.4266,2.4309,2.429,2.4336,2.4361,2.4369,2.4407,2.4416,2.4459,2.4429,2.4443,2.4478,2.4489,2.454,2.4482,2.4534,2.4536,2.4525,2.4641,2.4658,2.4744,2.4604,2.4606,2.4608,0,2.4212,2.4246,2.4336,2.4362,2.438,2.4421,2.4458,2.4495,2.4522,2.4526,2.4552,2.4543,2.4595,2.4554,2.4625,2.4586,2.4607,2.4615,2.4619,2.4622,2.4575,2.4646,2.4772,2.4784,2.4627,2.4625,2.4624,0,2.4289,2.4358,2.442,2.4436,2.4469,2.4498,2.4512,2.4538,2.4562,2.4595,2.4611,2.465,2.4671,2.47,2.4702,2.4672,2.4773,2.4732,2.4776,2.4776,2.4797,2.4795,2.4926,2.4814,2.4814,2.4814,2.4813,0,2.4394,2.4449,2.4455,2.4493,2.4553,2.4551,2.4611,2.4623,2.4646,2.4685,2.4671,2.4708,2.4708,2.4745,2.4747,2.4805,2.4815,2.4818,2.4817,2.4818,2.4818,2.4831,2.4824,2.4817,2.4816,2.4816,2.4815,0,2.449,2.4496,2.4562,2.4587,2.4595,2.4638,2.4659,2.4695,2.4702,2.4751,2.4763,2.4774,2.4817,2.4822,2.4872,2.4873,2.4942,2.4936,2.4933,2.4931,2.4974,2.4969,2.5116,2.5134,2.5012,2.5013,2.5014,0,2.4555,2.4597,2.4626,2.4651,2.4668,2.4709,2.4734,2.4733,2.476,2.4794,2.4825,2.4867,2.49,2.497,2.4982,2.502,2.5014,2.5063,2.5019,2.5018,2.5012,2.5009,2.5012,2.507,2.5072,2.5073,2.5074,0,2.467,2.467,2.4707,2.4745,2.4775,2.4805,2.4833,2.4854,2.4857,2.4887,2.4931,2.4957,2.5008,2.5049,2.5087,2.5101,2.5087,2.5088,2.5099,2.51,2.5095,2.5096,2.4953,2.5084,2.5083,2.5082,2.5081,2.5081,2.4751,2.4786,2.4812,2.4853,2.4874,2.49,2.4934,2.4945,2.4982,2.5023,2.5021,2.5069,2.5094,2.5143,2.516,2.5197,2.5181,2.5198,2.5202,2.5206,2.5209,2.5091,2.5204,2.5204,2.5204,2.5203,2.5203,0,2.4863,2.4878,2.4916,2.4955,2.4987,2.4972,2.5002,2.5029,2.5072,2.5097,2.513,2.5179,2.5219,2.5234,2.5273,2.5299,2.5294,2.5309,2.5306,2.5309,2.5223,2.5208,2.5313,2.5313,2.5313,2.5312,2.5312,2.5312,2.4924,2.4983,2.4987,2.5055,2.507,2.5117,2.5135,2.5159,2.5178,2.5234,2.5267,2.5277,2.5297,2.5337,2.5372,2.5376,2.5389,2.5407,2.5408,2.5327,2.5315,2.5305,2.5291,2.5411,2.5411,2.549,2.5491,2.5492]},{"header":{"parameterUnit":"m.s-1","parameterCategory":1,"la1":30.2991,"la2":30.254,"lo1":-89.0895,"lo2":-89.0444,"dy":0.0017,"dx":0.0017,"nx":28,"ny":28,"refTime":"2024-02-18T09:00:00:Z","depth":0,"parameterNumber":3,"parameterNumberName":"V-component_of_WINDS"},"data":[0,0,0,0,0,0,0,0,0,0,0,0,0,0,0,0,0,0,0,0,0,0,0,0,0,0,0,0,0,0,0,0,0,0,0,0,0,0,0,0,0,0,0,0,0,0,0,0,0,0,0,0,0,0,0,0,0,0,0.1105,0.1104,0,0.1053,0.1052,0.1052,0.1004,0.1004,0.1003,0.1002,0.0947,0.0946,0.0945,0,0,0,0,0,0,0,0,0,0,0,0,0,0.1161,0.116,0.1105,0.1104,0.1104,0.1053,0.1052,0.1051,0.1004,0.1004,0.1003,0.1002,0.0947,0.0946,0.0945,0,0,0,0,0,0,0,0,0,0,0,0,0,0.1125,0.116,0.1105,0.1074,0.1071,0.1053,0.1052,0.1051,0.1004,0.1004,0.1003,0.1002,0.0948,0.0946,0.0945,0.0953,0,0,0.0941,0.094,0,0,0,0,0,0,0,0,0.1127,0.1123,0.1079,0.1076,0.1072,0.1034,0.1051,0.1018,0.1005,0.103,0.1002,0.1001,0.0977,0.0973,0.0965,0.0951,0.0948,0.0941,0.094,0.0939,0.0939,0,0,0,0,0,0,0,0.113,0.1125,0.1084,0.1079,0.1074,0.1062,0.1056,0.1045,0.1008,0.1027,0.1024,0.1018,0.0975,0.0966,0.0963,0.0948,0.0941,0.0939,0.0939,0.0938,0.0936,0.0936,0,0,0,0,0,0,0.1137,0.1128,0.1086,0.1083,0.1098,0.1061,0.1055,0.1047,0.1008,0.1002,0.1019,0.1016,0.0969,0.0965,0.0961,0.0967,0.0939,0.0938,0.0937,0.0935,0.0936,0.0937,0,0,0,0,0,0,0.1139,0.1134,0.1088,0.1104,0.1097,0.1061,0.1053,0.1047,0.1038,0.1002,0.0995,0.1018,0.0968,0.0963,0.0955,0.0964,0.0937,0.0936,0.0934,0.0935,0.0936,0.098,0,0,0,0,0,0,0.1141,0.1135,0.1139,0.1105,0.1097,0.1084,0.1054,0.1046,0.1036,0.1032,0.0999,0.0993,0.0967,0.0958,0.0954,0.0962,0.0935,0.0933,0.0934,0.0936,0.0978,0.0982,0.0987,0,0,0,0,0,0.1143,0.1153,0.1139,0.1134,0.11,0.1085,0.108,0.1051,0.1037,0.104,0.1016,0.0994,0.0964,0.0957,0.0953,0.0961,0.0932,0.0934,0.0936,0.0975,0.0981,0.0987,0,0,0,0,0,0,0.1188,0.1148,0.1132,0.1132,0.1112,0.1077,0.108,0.1059,0.1043,0.1039,0.1004,0.0996,0.0992,0.0976,0.0969,0.0965,0.0945,0.0946,0.0977,0.0982,0.0987,0.0991,0.0934,0,0,0,0,0,0.1199,0.119,0.1155,0.1158,0.1149,0.1116,0.1108,0.1088,0.1066,0.1057,0.1033,0.1012,0.0997,0.0989,0.0974,0.0975,0.0966,0.0978,0.0982,0.0986,0.0987,0.0985,0.0989,0.0942,0.0942,0.0942,0,0,0.1219,0.1196,0.1193,0.1166,0.1149,0.114,0.1109,0.1101,0.1094,0.1055,0.1047,0.1028,0.1002,0.0998,0.0996,0.0984,0.0998,0.0989,0.0992,0.0991,0.0987,0.0992,0.0996,0.0944,0.0943,0.0943,0,0,0.1252,0.1234,0.1234,0.1217,0.1191,0.1169,0.1169,0.1136,0.1123,0.1113,0.1084,0.1074,0.1051,0.1033,0.1021,0.1046,0.1023,0.1042,0.1065,0.1064,0.1067,0.107,0.1078,0.1081,0.1043,0.1043,0.1043,0,0.1281,0.1267,0.1236,0.123,0.1218,0.1184,0.1182,0.1167,0.1137,0.113,0.1118,0.1087,0.1067,0.1058,0.1064,0.1055,0.1053,0.1045,0.1069,0.1072,0.1074,0.1081,0.1084,0.1045,0.1045,0.1045,0.1045,0,0.1303,0.1293,0.1296,0.1268,0.1257,0.1254,0.1222,0.1214,0.1194,0.1173,0.1163,0.1138,0.1116,0.1113,0.1093,0.11,0.1094,0.1076,0.1055,0.1082,0.1087,0.109,0.1049,0.1048,0.1047,0.1047,0,0,0.1363,0.1318,0.132,0.1306,0.1274,0.1266,0.126,0.1239,0.1233,0.1213,0.1206,0.1187,0.117,0.1156,0.1134,0.1132,0.1152,0.1114,0.1113,0.1121,0.1156,0.1169,0.1173,0.1137,0.1137,0.1138,0.1158,0,0.139,0.1378,0.135,0.1346,0.1336,0.1302,0.1297,0.1276,0.1256,0.1244,0.1221,0.1207,0.1187,0.1178,0.1175,0.115,0.1158,0.1148,0.1129,0.1129,0.1136,0.1176,0.119,0.1211,0.116,0.1161,0.1161,0,0.142,0.1402,0.1398,0.1365,0.136,0.1356,0.1334,0.1323,0.1298,0.1284,0.1268,0.1243,0.1234,0.1214,0.12,0.1194,0.1184,0.117,0.117,0.1167,0.1146,0.1173,0.1217,0.122,0.1164,0.1164,0.1164,0,0.1463,0.1438,0.1432,0.1422,0.1384,0.1381,0.1365,0.134,0.1329,0.1309,0.1302,0.1281,0.127,0.1254,0.1224,0.1213,0.1212,0.1191,0.1198,0.1199,0.12,0.12,0.1242,0.1195,0.1195,0.1195,0.1195,0,0.1495,0.1494,0.1451,0.1447,0.1443,0.1411,0.1408,0.1388,0.1366,0.1356,0.1326,0.1318,0.1279,0.1266,0.1242,0.1233,0.1228,0.1215,0.1208,0.1217,0.1219,0.121,0.1207,0.1195,0.1195,0.1195,0.1195,0,0.1543,0.1514,0.1505,0.147,0.1461,0.146,0.1429,0.1423,0.1401,0.139,0.1385,0.135,0.1333,0.1301,0.1275,0.1259,0.1254,0.1244,0.1263,0.1259,0.1268,0.1267,0.1305,0.1308,0.126,0.1261,0.1261,0,0.1565,0.1563,0.1528,0.152,0.1505,0.1492,0.1481,0.1448,0.1437,0.1408,0.1406,0.1386,0.1369,0.1342,0.1314,0.1293,0.1281,0.1296,0.1278,0.1286,0.128,0.128,0.1279,0.13,0.13,0.1301,0.1301,0,0.1607,0.1593,0.1578,0.1558,0.1546,0.1528,0.1509,0.1504,0.1466,0.1456,0.1438,0.1425,0.1398,0.1378,0.1353,0.1335,0.1311,0.1307,0.1308,0.1316,0.1327,0.132,0.1273,0.1307,0.1306,0.1306,0.1305,0.1305,0.1642,0.1638,0.1612,0.1597,0.1579,0.1561,0.1554,0.1531,0.1516,0.1492,0.1473,0.1456,0.143,0.1394,0.1377,0.1362,0.1352,0.1353,0.1353,0.1353,0.1356,0.133,0.1358,0.1358,0.1358,0.1357,0.1357,0,0.1682,0.1663,0.1649,0.1623,0.1611,0.1591,0.1568,0.1558,0.1544,0.1522,0.1505,0.1484,0.1465,0.1434,0.1412,0.1406,0.1395,0.1401,0.1401,0.1397,0.1368,0.1369,0.1411,0.1411,0.1411,0.1411,0.1411,0.1411,0.1701,0.1693,0.1675,0.1657,0.1639,0.1623,0.1611,0.1595,0.1576,0.1554,0.1538,0.1519,0.1493,0.1468,0.1449,0.144,0.1433,0.1443,0.143,0.1404,0.1399,0.1394,0.1395,0.1442,0.1442,0.146,0.146,0.1461]}]]